This is the latest recevied weather packets stored in our database for station/object KF4WSW-13. If no packets are shown the sender has not sent any weather packets the latest 10 day(s).
| Time | Temp. | Humidity | Pressure | Rain* | Wind** | Luminosity | Snow |
|---|---|---|---|---|---|---|---|
| 1777677387 | 26.67° C | 80% | 1008.8 hPa | 0 mm | - | 52 W/m² | - |
| 1777677086 | 26.67° C | 79% | 1008.7 hPa | 0 mm | - | 44 W/m² | - |
| 1777676784 | 26.67° C | 79% | 1008.7 hPa | 0 mm | - | 45 W/m² | - |
| 1777676482 | 26.67° C | 78% | 1008.5 hPa | 0 mm | - | 47 W/m² | - |
| 1777676179 | 26.67° C | 77% | 1008.6 hPa | 0 mm | - | 62 W/m² | - |
| 1777675875 | 26.67° C | 77% | 1008.6 hPa | 0 mm | - | 64 W/m² | - |
| 1777675572 | 26.67° C | 77% | 1008.8 hPa | 0 mm | - | 57 W/m² | - |
| 1777675269 | 27.22° C | 76% | 1008.6 hPa | 0 mm | - | 63 W/m² | - |
| 1777674966 | 27.22° C | 76% | 1008.8 hPa | 0 mm | - | 60 W/m² | - |
| 1777674663 | 27.22° C | 76% | 1008.6 hPa | 0 mm | - | 62 W/m² | - |
| 1777674381 | 27.22° C | 75% | 1008.5 hPa | 0 mm | - | 56 W/m² | - |
| 1777674056 | 27.78° C | 74% | 1008.5 hPa | 0 mm | - | 75 W/m² | - |
| 1777673752 | 27.78° C | 74% | 1008.5 hPa | 0 mm | - | 87 W/m² | - |
| 1777673450 | 27.22° C | 73% | 1008.3 hPa | 0 mm | - | 81 W/m² | - |
| 1777673147 | 27.22° C | 74% | 1008.3 hPa | 0 mm | - | 83 W/m² | - |
| 1777672844 | 27.22° C | 74% | 1008.4 hPa | 0 mm | - | 66 W/m² | - |
| 1777672540 | 27.22° C | 73% | 1008.3 hPa | 0 mm | - | 85 W/m² | - |
| 1777672235 | 27.78° C | 73% | 1008.4 hPa | 0 mm | - | 92 W/m² | - |
| 1777671931 | 27.78° C | 73% | 1008.1 hPa | 0 mm | - | 105 W/m² | - |
| 1777671627 | 27.78° C | 73% | 1008.3 hPa | 0 mm | - | 166 W/m² | - |
| 1777671324 | 27.22° C | 74% | 1008.6 hPa | 0 mm | - | 194 W/m² | - |
| 1777671020 | 27.78° C | 74% | 1008.4 hPa | 0 mm | - | 99 W/m² | - |
| 1777670716 | 27.78° C | 72% | 1008.4 hPa | 0 mm | - | 84 W/m² | - |
| 1777670414 | 27.78° C | 72% | 1008.5 hPa | 0 mm | - | 129 W/m² | - |
| 1777670110 | 27.78° C | 73% | 1008.4 hPa | 0 mm | - | 112 W/m² | - |
* Rain latest hour (hover to see other rain measurements)
** Current wind speed in m/s (hover to see current wind gust speed)